This is the latest recevied weather packets stored in our database for station/object KW4UJ. If no packets are shown the sender has not sent any weather packets the latest 10 day(s).
| Time | Temp. | Humidity | Pressure | Rain* | Wind** | Luminosity | Snow |
|---|---|---|---|---|---|---|---|
| 1787846978 | 27.78° C | 77% | 1015.2 hPa | 0 mm | - | 225 W/m² | - |
| 1787846677 | 27.78° C | 78% | 1015.5 hPa | 0 mm | - | 242 W/m² | - |
| 1787846372 | 27.78° C | 77% | 1015.4 hPa | 0 mm | - | 257 W/m² | - |
| 1787846068 | 27.78° C | 78% | 1015.3 hPa | 0 mm | - | 242 W/m² | - |
| 1787845764 | 27.22° C | 79% | 1015.4 hPa | 0 mm | - | 228 W/m² | - |
| 1787845459 | 27.22° C | 79% | 1015.4 hPa | 0 mm | - | 217 W/m² | - |
| 1787845155 | 27.22° C | 79% | 1015.3 hPa | 0 mm | - | 211 W/m² | - |
| 1787844850 | 27.22° C | 79% | 1015.6 hPa | 0 mm | - | 232 W/m² | - |
| 1787844549 | 26.67° C | 80% | 1015.5 hPa | 0 mm | - | 227 W/m² | - |
| 1787844245 | 26.67° C | 80% | 1015.4 hPa | 0 mm | - | 195 W/m² | - |
| 1787843943 | 26.11° C | 80% | 1015.5 hPa | 0 mm | - | 193 W/m² | - |
| 1787843639 | 26.11° C | 81% | 1015.5 hPa | 0 mm | - | 169 W/m² | - |
| 1787843335 | 26.11° C | 81% | 1015.7 hPa | 0 mm | - | 199 W/m² | - |
| 1787843036 | 26.11° C | 81% | 1015.8 hPa | 0 mm | - | 190 W/m² | - |
| 1787842735 | 25.56° C | 82% | 1015.7 hPa | 0 mm | - | 184 W/m² | - |
| 1787842430 | 25.56° C | 82% | 1015.8 hPa | 0 mm | - | 160 W/m² | - |
| 1787842125 | 25.56° C | 82% | 1016 hPa | 0 mm | - | 133 W/m² | - |
| 1787841820 | 25.56° C | 82% | 1015.9 hPa | 0 mm | - | 139 W/m² | - |
| 1787841516 | 25.56° C | 82% | 1015.9 hPa | 0 mm | - | 156 W/m² | - |
| 1787841215 | 25.56° C | 82% | 1015.7 hPa | 0 mm | - | 158 W/m² | - |
| 1787840910 | 25.56° C | 83% | 1015.8 hPa | 0 mm | - | 137 W/m² | - |
| 1787840605 | 25.56° C | 82% | 1015.9 hPa | 0 mm | - | 135 W/m² | - |
| 1787840300 | 25.56° C | 82% | 1015.7 hPa | 0 mm | - | 141 W/m² | - |
| 1787840001 | 25° C | 83% | 1015.6 hPa | 0 mm | - | 150 W/m² | - |
| 1787839700 | 25° C | 83% | 1015.6 hPa | 0 mm | - | 169 W/m² | - |
* Rain latest hour (hover to see other rain measurements)
** Current wind speed in m/s (hover to see current wind gust speed)